This demonstration page uses our WeatherBlox Daily Observations layout. Learn more.

Left ArrowRight Arrow

Hourly Observations for August 19, 2022

Temp ( °F °C ) Dew Point ( °F °C ) Humidity (%) Winds ( mph kmh ) Pressure ( in mb ) Visibility ( mi km ) Precip ( " mm )
12:59 am 00:59 Mostly Clear 72 22.2 64 17.8 76 76 S 6 9 30.06 1018 10 16 0.00 0.00
1:59 am 01:59 Partly Cloudy 72 22.2 65 18.3 79 79 SSW 7 11 30.06 1018 10 16 0.00 0.00
2:59 am 02:59 Partly Cloudy 71 21.7 65 18.3 81 81 SSW 6 9 30.06 1018 10 16 0.00 0.00
3:59 am 03:59 Partly Cloudy 70 21.1 65 18.3 84 84 S 3 6 30.06 1018 10 16 0.00 0.00
4:59 am 04:59 Partly Cloudy 69 20.6 65 18.3 87 87 SSW 5 7 30.06 1018 10 16 0.00 0.00
5:59 am 05:59 Partly Cloudy 69 20.6 65 18.3 87 87 Calm 30.07 1018 10 16 0.00 0.00
6:59 am 06:59 Partly Cloudy 68 20 65 18.3 90 90 Calm 30.09 1019 10 16 0.00 0.00
7:59 am 07:59 Mostly Cloudy 73 22.8 68 20 84 84 S 3 6 30.10 1019 10 16 0.00 0.00
8:59 am 08:59 Mostly Cloudy 76 24.4 66 18.9 71 71 WSW 3 6 30.11 1020 10 16 0.00 0.00
9:59 am 09:59 Mostly Cloudy 79 26.1 65 18.3 62 62 VRB 3 6 30.12 1020 10 16 0.00 0.00
10:59 am 10:59 Mostly Cloudy 83 28.3 66 18.9 57 57 NNW 6 9 30.13 1020 10 16 0.00 0.00
11:59 am 11:59 Mostly Cloudy 84 28.9 66 18.9 55 55 N 8 13 30.12 1020 10 16 0.00 0.00
12:59 pm 12:59 Cloudy 82 27.8 67 19.4 60 60 ENE 13 20 30.11 1020 10 16 0.00 0.00
1:59 pm 13:59 Cloudy 84 28.9 67 19.4 57 57 E 9 15 30.11 1020 10 16 0.00 0.00
2:59 pm 14:59 Cloudy 85 29.4 63 17.2 48 48 ESE 12 19 30.12 1020 10 16 0.00 0.00
3:07 pm 15:07 Mostly Sunny 84 28.9 62 16.7 48 48 SSE 9 15 30.12 1020 10 16 0.00 0.00
3:59 pm 15:59 Cloudy 83 28.3 62 16.7 49 49 SSE 8 13 30.11 1020 10 16 0.00 0.00
4:59 pm 16:59 Mostly Cloudy 82 27.8 62 16.7 51 51 SSE 8 13 30.11 1020 10 16 0.00 0.00
5:59 pm 17:59 Cloudy 81 27.2 65 18.3 58 58 S 6 9 30.10 1019 10 16 0.00 0.00
6:59 pm 18:59 Mostly Cloudy 80 26.7 65 18.3 60 60 E 9 15 30.09 1019 10 16 0.00 0.00
7:59 pm 19:59 Mostly Cloudy 77 25 66 18.9 69 69 ESE 3 6 30.10 1019 10 16 0.00 0.00
8:59 pm 20:59 Mostly Cloudy 77 25 66 18.9 69 69 SE 6 9 30.11 1020 10 16 0.00 0.00
9:59 pm 21:59 Mostly Cloudy 76 24.4 67 19.4 74 74 SE 5 7 30.12 1020 10 16 0.00 0.00
10:59 pm 22:59 Mostly Cloudy 76 24.4 68 20 77 77 E 5 7 30.13 1020 10 16 0.00 0.00
11:59 pm 23:59 Mostly Cloudy 75 23.9 68 20 79 79 Calm 30.12 1020 10 16 0.00 0.00

Powered by AerisWeather